Glens Falls, NY

7:15 PM EST on December 07, 2019 (GMT -0500)
Bennett Memorial

Weather History for KGFL - October, 2019

Change the Weather History Date:

Thursday, October 24, 2019

  Actual Average Record
Temperature  
Mean Temperature 49 °F 44 °F  
Max Temperature 66 °F 55 °F 74 °F (2017)
Min Temperature 31 °F 33 °F 15 °F (1969)
Degree Days  
Heating Degree Days 16 21  
Month to date heating degree days 383 414  
Since 1 July heating degree days 605 699  
Cooling Degree Days 0 0  
Month to date cooling degree days 0 0  
Year to date cooling degree days 416 351  
Moisture  
Dew Point 36 °F    
Average Humidity 67    
Maximum Humidity 96    
Minimum Humidity 37    
Precipitation  
Precipitation 0.00 in 0.10 in 2.54 in (2009)
Month to date precipitation 5.35 2.72  
Year to date precipitation 36.20 31.91  
Sea Level Pressure  
Sea Level Pressure 30.20 in    
Wind  
Wind Speed 5 mph (SSW)    
Max Wind Speed 20 mph    
Max Gust Speed 27 mph    
Visibility 10 miles    
Events      
T = Trace of Precipitation, MM = Missing Value Source: NWS Daily Summary

Daily Weather History Graph

Daily Weather History Graph

Search for Another Location

Airport or City:

Astronomy

Oct. 24, 2019 Rise Set
Actual Time 7:19 AM EDT 5:57 PM EDT
Civil Twilight 6:49 AM EDT 6:26 PM EDT
Nautical Twilight 6:16 AM EDT 6:59 PM EDT
Astronomical Twilight 5:43 AM EDT 7:32 PM EDT
Moon 2:35 AM EDT (10/24) 4:32 PM EDT (10/24)
Length of Visible Light 11h 36m
Length of Day
10h 38m
Waning Crescent, 17% of the Moon is Illuminated
Oct 24
Waning Crescent
Oct 27
New
Nov 4
First Quarter
Nov 12
Full
Nov 19
Last Quarter

Hourly Weather History & Observations

Time (EDT) Temp. Windchill Dew Point Humidity Pressure Visibility Wind Dir Wind Speed Gust Speed Precip Events Conditions
12:53 AM 37.9 °F 35.5 °F 34.0 °F 86% 30.14 in 10.0 mi SSW 3.5 mph - N/A   Clear
1:53 AM 35.1 °F - 33.1 °F 92% 30.17 in 10.0 mi Calm Calm - N/A   Clear
2:53 AM 34.0 °F - 32.0 °F 92% 30.17 in 10.0 mi Calm Calm - N/A   Clear
3:53 AM 32.0 °F 27.5 °F 30.9 °F 96% 30.19 in 10.0 mi SSW 4.6 mph - N/A   Clear
4:53 AM 33.1 °F - 30.9 °F 92% 30.21 in 10.0 mi Calm Calm - N/A   Clear
5:53 AM 33.1 °F - 30.9 °F 92% 30.21 in 10.0 mi Calm Calm - N/A   Clear
6:53 AM 32.0 °F - 28.9 °F 88% 30.23 in 8.0 mi Calm Calm - N/A   Clear
7:53 AM 34.0 °F - 30.9 °F 89% 30.23 in 10.0 mi Calm Calm - N/A   Clear
8:53 AM 45.0 °F 41.2 °F 36.0 °F 71% 30.24 in 10.0 mi South 6.9 mph - N/A   Clear
9:53 AM 46.9 °F - 36.0 °F 66% 30.25 in 10.0 mi South 10.4 mph - N/A   Clear
10:53 AM 51.1 °F - 37.0 °F 59% 30.24 in 10.0 mi SSW 9.2 mph 17.3 mph N/A   Clear
11:53 AM 55.9 °F - 37.9 °F 51% 30.20 in 10.0 mi South 11.5 mph - N/A   Clear
1:53 PM 63.0 °F - 37.0 °F 38% 30.15 in 10.0 mi South 17.3 mph 24.2 mph N/A   Clear
2:53 PM 64.9 °F - 37.0 °F 36% 30.14 in 10.0 mi South 11.5 mph 19.6 mph N/A   Clear
3:53 PM 64.0 °F - 37.9 °F 38% 30.14 in 10.0 mi SSW 8.1 mph - N/A   Scattered Clouds
4:53 PM 63.0 °F - 37.9 °F 40% 30.16 in 10.0 mi SW 4.6 mph - N/A   Mostly Cloudy
5:53 PM 62.1 °F - 37.0 °F 39% 30.17 in 10.0 mi SSW 4.6 mph - N/A   Overcast
6:53 PM 60.1 °F - 36.0 °F 41% 30.19 in 10.0 mi West 3.5 mph - N/A   Mostly Cloudy
7:53 PM 57.0 °F - 37.0 °F 47% 30.22 in 10.0 mi NNW 6.9 mph - N/A   Mostly Cloudy
8:53 PM 55.0 °F - 37.9 °F 53% 30.23 in 10.0 mi Calm Calm - N/A   Partly Cloudy
9:53 PM 50.0 °F - 39.9 °F 68% 30.25 in 10.0 mi Calm Calm - N/A   Clear
10:53 PM 46.0 °F 43.9 °F 41.0 °F 83% 30.26 in 10.0 mi WSW 4.6 mph - N/A   Mostly Cloudy
11:53 PM 53.1 °F - 41.0 °F 64% 30.27 in 10.0 mi WSW 6.9 mph - N/A   Mostly Cloudy